Погода Александровский Завод

Погода Александровский Завод : погода сейчас, прогноз погоды и архив. Всё, что Вы хотите узнать о погоде Александровский Завод!

Хотите узнать прогноз погоды Александровский Завод? Тогда Вам сюда: Погода Александровский Завод

Поиск расширенной информации на нашем сайте:

Другие новости

Новости СМИ2

Главная страница сайта

Новости сайта

03.07.2017

Напоминаем, что на нашем специализированном сайте Метеоцентр.Азия вы можете получить высокодетализированные автоматические прогнозы погоды по пунктам России, СНГ и мира в авиационном формате (включающие направление и скорость ветра, видимость, явления погоды, количество и форму облачности, нижнюю и верхнюю границу облачности).


Погода Александровский Завод - сегодня

Время (UTC), дата Ветер
(°,м/с) 
Видим.   Явления Облачность Т
(°С)
Тd
(°С)
f(%) Тe
(°С)
Pmin
(гПа)
dP
(гПа)
Po
(мм)
O2
(г/м3)
Тmin Tmax R s Состояние
почвы
21 19.02.18 120 (ЮВ) 20000 м    ясно 
-25.7 -28.3 79 -26  1029.5  -0.4  692  309           
03 20.02.18 280 (З) 20000 м    ясно 
-16.8 -23.3 57 -23  1025.9  -0.2  692  299           
06 20.02.18 300 (СЗ) 20000 м    ясно 
-13.4 -23.2 44 -18  1022.6  -1.7  691  294           
09 20.02.18 280 (З) 20000 м    ясно 
-14.7 -23.4 48 -19  1023.3  -0.1  691  296           
15 20.02.18 190 (Ю) 20000 м    3/0 верхняя 
[Ci fib]
-27 -29.6 78 -30  1027  -1.6  690  310           
18 20.02.18 190 (Ю) 20000 м    6/0 верхняя 
[Cs]
-21.2 -23.7 80 -22  1022.4  -1.8  688  302           
21 20.02.18 200 (Ю) 4000 м  слаб. снег  10/0 средняя 
[As trans]
-25.7 -28.2 80 -29  1022.6  -1.6  687  307           
03 21.02.18 290 (З) 20000 м    6/3 600 м верхняя 
[Cu hum|Ci fib]
-13.7 -19.2 63 -14  1015.5  -0.9  686  292           
09 21.02.18 330 (СЗ) 3{10}  20000 м    4/0 средняя 
[Ac lent]
-15.3 -23.7 49 -19  1016.7  -0.5  686  294           
12 21.02.18 210 (ЮЗ) 20000 м    ясно 
-27.2 -29.9 78 -31  1022.7  0.8  687  309    -12.9       
15 21.02.18 250 (З) 20000 м    ясно 
-28.6 -31.3 78 -29  1023.4  0.1  687  311           
18 21.02.18 220 (ЮЗ) 20000 м    ясно 
-30.9 -33.9 75 -35  1024.5  687  314           
21 21.02.18 190 (Ю) 20000 м    ясно 
-32.7 -35.9 73 -34  1025.2  -0.2  687  316           
03 22.02.18 320 (СЗ) 20000 м    ясно 
-17.2 -21.8 67 -17  1018.1  -0.4  686  297           
06 22.02.18 260 (З) 20000 м    8/3 600 м средняя 
[Cu hum|Ac cuf]
-13.5 -24.2 40 -17  1015.2  -1.2  686  292           
09 22.02.18 290 (З) 20000 м    4/4 600 м 
[Cu hum]
-16.2 -22.3 59 -19  1017.3  0.9  686  295           
12 22.02.18 200 (Ю) 20000 м    ясно 
-28 -30.9 76 -32  1024.8  688  310    -13.1       
15 22.02.18 240 (ЮЗ) 20000 м    ясно 
-32 -35 75 -36  1027.7  0.9  689  316           
18 22.02.18 220 (ЮЗ) 20000 м    ясно 
-34.2 -37.7 70 -38  1030  1.1  689  319           
21 22.02.18 230 (ЮЗ) 20000 м    ясно 
-35.3 -38.9 70 -36  1032.3  1.5  690  321           
03 23.02.18 тихо ()   20000 м    ясно 
-17.2 -25.1 50 -17  1028  1.3  693  300           
06 23.02.18 300 (СЗ) 20000 м    3/3 600 м 
[Cu hum]
-14.5 -24.9 41 -20  1027.1  0.2  693  297           
09 23.02.18 360 (С) 20000 м    ясно 
-14.9 -25.5 40 -17  1029  1.5  694  298           
12 23.02.18 200 (Ю) 20000 м    ясно 
-27.5 -30.8 74 -31  1036.7  696  314    -12.7       
15 23.02.18 200 (Ю) 20000 м    ясно 
-31.4 -34.5 74 -35  1039.7  0.9  697  319           
Время (UTC), дата Ветер
(°,м/с) 
Видим.   Явления Облачность Т
(°С)
Тd
(°С)
f(%) Тe
(°С)
Pmin
(гПа)
dP
(гПа)
Po
(мм)
O2
(г/м3)
Тmin Tmax R s Состояние
почвы

Для получения пояснительной информации подведите курсор к названию столбца.

ПОГОДА Александровский Завод - архив

Всё, что Вы хотите узнать о погоде Александровский Завод - удобно и подробно!

Выберите нужную дату (начиная с 1 января 2015* года) и нажмите кнопку "Найти".
Будут отображены архивные сводки погоды по пункту Александровский Завод, начиная с указанной даты.


Отображать данные в формате CSV (для использования в таблицах Excel)


Внимание! Наш архив погоды предназначен исключительно для личного некоммерческого использования в познавательных целях. Если Вам необходимы официальные справки о состоянии погоды (для производственных, юридических, коммерческих и т.п. целей), обращайтесь в органы Росгидромета.

*Примечание: данная дата относится к архиву по метеостанциям СССР (Россия, СНГ, Балтия).
Архив по метеостанциям Зарубежной Европы и Азии (кроме Китая) хранится 10 дней, по другим регионам земного шара (Китай, Африка, Америка, Австралия, Океания) - 1 день.

Александровский Завод - район местоположения метеостанции


Название, широта, долгота, высота метеостанции:
Александровский Завод 50.9°ш. 117.9°д. 807 м над ур. моря [Российская Федерация]

Дополнительная информация

В oтличие oт бoльшинства пoгoдных сайтoв мы публикуем пoдрoбную метеoинфoрмацию в детальнoм прoфессиoнальнoм фoрмате.

Характеристики температуры и влажнoсти вoздуха измеряются на высoте 2 м в тени вдали oт зданий и деревьев.
Скoрoсть ветра измеряется на высoте 10 м (на урoвне рoста челoвека скoрoсть ветра ниже в 1.5-2 раза). Если метеoстанция нахoдится в гoрoде или в лесу, тo скoрoсть ветра занижена на 2-4 м/с пo сравнению с oткрытым местoм. Скoрoсть ветра над акватoриями крупных рек и oзёр, а также на вершинах хoлмoв на 2-5 м/с выше, чем в oбычных услoвиях.
Атмoсфернoе давление в разных тoчках местнoсти мoжет значительнo oтличаться oт давления на метеoстанции, в зависимoсти oт услoвий рельефа (при пoдъёме на 10 м давление пoнижается примернo на 1 мм рт.ст.).